******************************************************************************* JPL/HORIZONS 118401 LINEAR (1999 RE70) 2025-Dec-12 17:58:52 Rec #: 118401 (+COV) Soln.date: 2025-Nov-27_19:26:38 # obs: 1162 (1999-2025) IAU76/J2000 helio. ecliptic osc. elements (au, days, deg., period=Julian yrs): EPOCH= 2458241.5 ! 2018-May-03.00 (TDB) Residual RMS= .21677 EC= .192696123318107 QR= 2.579298536654248 TP= 2457824.28839168 OM= 345.9049257496578 W= 35.32803527378073 IN= .2344676295683672 A= 3.194953735705378 MA= 72.00515619281667 ADIST= 3.810608934756508 PER= 5.71091 N= .172586656 ANGMOM= .030171517 DAN= 2.65839 DDN= 3.65017 L= 21.2327347 B= .1355823 MOID= 1.58283997 TP= 2017-Mar-11.7883916800 Asteroid physical parameters (km, seconds, rotational period in hours): GM= n.a. RAD= 1.75 ROTPER= n.a. H= 15.29 G= .150 B-V= n.a. ALBEDO= .070 STYP= n.a. ASTEROID comments: 1: soln ref.= JPL#82, OCC=0 2: source=ORB ******************************************************************************* ******************************************************************************* Ephemeris / WWW_USER Fri Dec 12 17:58:52 2025 Pasadena, USA / Horizons ******************************************************************************* Target body name: 118401 LINEAR (1999 RE70) {source: JPL#82} Center body name: Earth (399) {source: DE441} Center-site name: GEOCENTRIC ******************************************************************************* Start time : A.D. 2028-Aug-05 00:00:00.0000 UT Stop time : A.D. 2028-Aug-07 00:00:00.0000 UT Step-size : 60 minutes ******************************************************************************* Target pole/equ : undefined Target radii : 1.75 km Center geodetic : 0.0, 0.0, -6378.137 {E-lon(deg),Lat(deg),Alt(km)} Center cylindric: 0.0, 0.0, 0.0 {E-lon(deg),Dxy(km),Dz(km)} Center pole/equ : ITRF93 {East-longitude positive} Center radii : 6378.137, 6378.137, 6356.752 km {Equator_a, b, pole_c} Target primary : Sun Vis. interferer : MOON (R_eq= 1737.400) km {source: DE441} Rel. light bend : Sun {source: DE441} Rel. lght bnd GM: 1.3271E+11 km^3/s^2 Small-body perts: Yes {source: SB441-N16} Atmos refraction: NO (AIRLESS) RA format : HMS Time format : CAL Calendar mode : Mixed Julian/Gregorian EOP file : eop.251212.p260310 EOP coverage : DATA-BASED 1962-JAN-20 TO 2025-DEC-12. PREDICTS-> 2026-MAR-09 Units conversion: 1 au= 149597870.700 km, c= 299792.458 km/s, 1 day= 86400.0 s Table cut-offs 1: Elevation (-90.0deg=NO ),Airmass (>38.000=NO), Daylight (NO ) Table cut-offs 2: Solar elongation ( 0.0,180.0=NO ),Local Hour Angle( 0.0=NO ) Table cut-offs 3: RA/DEC angular rate ( 0.0=NO ) ******************************************************************************* Initial IAU76/J2000 heliocentric ecliptic osculating elements (au, days, deg.): EPOCH= 2458241.5 ! 2018-May-03.00 (TDB) Residual RMS= .21677 EC= .192696123318107 QR= 2.579298536654248 TP= 2457824.28839168 OM= 345.9049257496578 W= 35.32803527378073 IN= .2344676295683672 Equivalent ICRF heliocentric cartesian coordinates (au, au/d): X=-1.335853336948749E+00 Y= 2.582473865257617E+00 Z= 1.130383530856438E+00 VX=-9.547369732150425E-03 VY=-2.229381721733344E-03 VZ=-9.874736405125143E-04 Asteroid physical parameters (km, seconds, rotational period in hours): GM= n.a. RAD= 1.75 ROTPER= n.a. H= 15.29 G= .150 B-V= n.a. ALBEDO= .070 STYP= n.a. ******************************************************************************* Date__(UT)__HR:MN r rdot ************************************************** $$SOE 2028-Aug-05 00:00 2.586794148394 -0.0129545 2028-Aug-05 01:00 2.586793843972 -0.0123442 2028-Aug-05 02:00 2.586793554236 -0.0117340 2028-Aug-05 03:00 2.586793279187 -0.0111237 2028-Aug-05 04:00 2.586793018825 -0.0105134 2028-Aug-05 05:00 2.586792773150 -0.0099032 2028-Aug-05 06:00 2.586792542161 -0.0092929 2028-Aug-05 07:00 2.586792325859 -0.0086827 2028-Aug-05 08:00 2.586792124243 -0.0080724 2028-Aug-05 09:00 2.586791937314 -0.0074621 2028-Aug-05 10:00 2.586791765072 -0.0068519 2028-Aug-05 11:00 2.586791607517 -0.0062416 2028-Aug-05 12:00 2.586791464648 -0.0056313 2028-Aug-05 13:00 2.586791336466 -0.0050211 2028-Aug-05 14:00 2.586791222971 -0.0044108 2028-Aug-05 15:00 2.586791124162 -0.0038006 2028-Aug-05 16:00 2.586791040040 -0.0031903 2028-Aug-05 17:00 2.586790970605 -0.0025800 2028-Aug-05 18:00 2.586790915857 -0.0019698 2028-Aug-05 19:00 2.586790875795 -0.0013595 2028-Aug-05 20:00 2.586790850420 -0.0007493 2028-Aug-05 21:00 2.586790839732 -0.0001390 2028-Aug-05 22:00 2.586790843730 0.0004713 2028-Aug-05 23:00 2.586790862415 0.0010815 2028-Aug-06 00:00 2.586790895787 0.0016918 2028-Aug-06 01:00 2.586790943845 0.0023021 2028-Aug-06 02:00 2.586791006591 0.0029123 2028-Aug-06 03:00 2.586791084023 0.0035226 2028-Aug-06 04:00 2.586791176141 0.0041328 2028-Aug-06 05:00 2.586791282946 0.0047431 2028-Aug-06 06:00 2.586791404438 0.0053534 2028-Aug-06 07:00 2.586791540617 0.0059636 2028-Aug-06 08:00 2.586791691482 0.0065739 2028-Aug-06 09:00 2.586791857034 0.0071841 2028-Aug-06 10:00 2.586792037273 0.0077944 2028-Aug-06 11:00 2.586792232198 0.0084047 2028-Aug-06 12:00 2.586792441810 0.0090149 2028-Aug-06 13:00 2.586792666108 0.0096252 2028-Aug-06 14:00 2.586792905093 0.0102354 2028-Aug-06 15:00 2.586793158764 0.0108457 2028-Aug-06 16:00 2.586793427123 0.0114559 2028-Aug-06 17:00 2.586793710167 0.0120662 2028-Aug-06 18:00 2.586794007898 0.0126765 2028-Aug-06 19:00 2.586794320316 0.0132867 2028-Aug-06 20:00 2.586794647420 0.0138970 2028-Aug-06 21:00 2.586794989211 0.0145072 2028-Aug-06 22:00 2.586795345688 0.0151175 2028-Aug-06 23:00 2.586795716851 0.0157277 2028-Aug-07 00:00 2.586796102701 0.0163380 $$EOE ******************************************************************************* Column meaning: TIME Times PRIOR to 1962 are UT1, a mean-solar time closely related to the prior but now-deprecated GMT. Times AFTER 1962 are in UTC, the current civil or "wall-clock" time-scale. UTC is kept within 0.9 seconds of UT1 using integer leap-seconds for 1972 and later years. Conversion from the internal Barycentric Dynamical Time (TDB) of solar system dynamics to the non-uniform civil UT time-scale requested for output has not been determined for UTC times after the next July or January 1st. Therefore, the last known leap-second is used as a constant over future intervals. Time tags refer to the UT time-scale conversion from TDB on Earth regardless of observer location within the solar system, although clock rates may differ due to the local gravity field and no analog to "UT" may be defined for that location. Any 'b' symbol in the 1st-column denotes a B.C. date. First-column blank (" ") denotes an A.D. date. CALENDAR SYSTEM Mixed calendar mode was active such that calendar dates after AD 1582-Oct-15 (if any) are in the modern Gregorian system. Dates prior to 1582-Oct-5 (if any) are in the Julian calendar system, which is automatically extended for dates prior to its adoption on 45-Jan-1 BC. The Julian calendar is useful for matching historical dates. The Gregorian calendar more accurately corresponds to the Earth's orbital motion and seasons. A "Gregorian-only" calendar mode is available if such physical events are the primary interest. NOTE: "n.a." in output means quantity "not available" at the print-time. 'r rdot' = The Sun's apparent range ("r", light-time aberrated) and range-rate ("rdot") relative to the target center, as seen by the observer. A positive "rdot" means the target center was moving away from the Sun, negative means moving toward the Sun. Units: AU and KM/S Computations by ... Solar System Dynamics Group, Horizons On-Line Ephemeris System 4800 Oak Grove Drive, Jet Propulsion Laboratory Pasadena, CA 91109 USA General site: https://ssd.jpl.nasa.gov/ Mailing list: https://ssd.jpl.nasa.gov/email_list.html System news : https://ssd.jpl.nasa.gov/horizons/news.html User Guide : https://ssd.jpl.nasa.gov/horizons/manual.html Connect : browser https://ssd.jpl.nasa.gov/horizons/app.html#/x API https://ssd-api.jpl.nasa.gov/doc/horizons.html command-line telnet ssd.jpl.nasa.gov 6775 e-mail/batch https://ssd.jpl.nasa.gov/ftp/ssd/horizons_batch.txt scripts https://ssd.jpl.nasa.gov/ftp/ssd/SCRIPTS Author : Jon.D.Giorgini@jpl.nasa.gov ******************************************************************************* !$$SOF COMMAND = '118401' QUANTITIES = '19' START_TIME = '2028-Aug-05' STEP_SIZE = '1 hour' STOP_TIME = '2028-Aug-07'